Regional Weather Roundup
Issued by NWS

Home | Current Version | Previous Version | Graphics & Text | Print | Product List | Glossary On
Versions: 1 2 3 4 5 6 7 8 9 10 11 12 13 14 15 16 17 18 19 20 21 22 23 24 25 26 27 28 29 30 31 32 33 34 35 36 37 38 39 40 41 42 43 44 45 46 47 48 49 50
000
ASUS45 KTFX 042010
RWRMT
MONTANA REGIONAL WEATHER ROUNDUP
NATIONAL WEATHER SERVICE GREAT FALLS MT
100 PM MST SUN DEC 04 2016

NOTE: "FAIR" INDICATES FEW OR NO CLOUDS BELOW 12000 FEET WITH NO
SIGNIFICANT WEATHER AND/OR OBSTRUCTIONS TO VISIBILITY.

MTZ001>007-043-042100-
WEST OF THE DIVIDE

CITY           SKY/WX    TMP DP  RH WIND       PRES   REMARKS
KALISPELL      CLOUDY    35  27  72 W12       29.58F HAZE    WCI  27
MISSOULA       CLOUDY    36  34  92 W5        29.64F
BUTTE          CLOUDY    34  22  61 SW8       29.62F WCI  27
MULLAN PASS    LGT SNOW  23  21  92 NW13G30   29.56S VSB 3/4 WCI  11
ANACONDA         N/A     36  23  60 S17G24    29.61F WCI  25
DEER LODGE       N/A     37  25  60 S8        29.60F WCI  31
EUREKA           N/A     39  19  45 W8        29.58F
HAMILTON         N/A     37  34  87 S12       29.64F WCI  30
LIBBY            N/A     32  32 100 CALM      29.62F
PLAINS           N/A     42  30  62 S13       29.64F
RONAN            N/A     40  27  60 CALM      29.67F
$$

MTZ008-052>055-042100-
SOUTHWEST MONTANA

CITY           SKY/WX    TMP DP  RH WIND       PRES   REMARKS
BOZEMAN        CLOUDY    40  25  55 SW17G24   29.62F
DILLON         FLURRIES  31  27  85 SW10      29.66F WCI  22
W YELLOWSTONE  LGT SNOW  25  21  86 SW10      29.76F VSB 3/4 WCI  15
ENNIS          SUNNY     32  23  69 S21G31    29.73F WCI  20
THREE FORKS      N/A     39  39 100 S18       29.66F WCI  29
TWIN BRIDGES     N/A     33  24  70 S12       29.70F WCI  24
$$

MTZ009-010-012-014-046-048-049-054-042100-
EAST SLOPES AND CENTRAL MONTANA

CITY           SKY/WX    TMP DP  RH WIND       PRES   REMARKS
CUT BANK       PTSUNNY   35  25  66 W15       29.48F WCI  25
GREAT FALLS    SUNNY     41  24  51 SW28G38   29.50F
MALMSTROM AFB  SUNNY     42  26  52 SW28G36   29.52F
HELENA         CLOUDY    42  23  46 CALM      29.57F
AUGUSTA        PTSUNNY   40  21  46 SW21G28   29.48F
BOWMANS CRNR     N/A     37  25  62 SW26      29.49F WCI  25
CHOTEAU          N/A     41  21  45 SW17G23   29.50F
CONRAD           N/A     42  26  53 S17       29.55F
FAIRFIELD        N/A     41  23  49 S21G26    29.49F
POWER            N/A     41  23  47 SW23G32   29.49F
RAYNESFORD       N/A     40  22  48 W26G41    29.51F
ULM              N/A     42  24  48 W23G32    29.52F
$$

MTZ011-013-016-021-045-047-050-051-042100-
NORTH CENTRAL MONTANA

CITY           SKY/WX    TMP DP  RH WIND       PRES   REMARKS
HAVRE          CLOUDY    40  26  57 SW8       29.52F
LEWISTOWN      CLOUDY    38  21  50 SW20G26   29.54F WCI  28
N BAR RANCH    PTSUNNY   39  18  41 W17G25    29.56F WCI  30
CHINOOK          N/A     41  25  52 SW13      29.52F
DENTON         PTSUNNY   43  20  39 W32G52    29.49F
GEYSER         PTSUNNY   42  20  41 W26G36    29.51F
GRASS RANGE    PTSUNNY   41  20  43 W17       29.51F
JUDITH GAP     PTSUNNY   37  20  50 W25G36    29.55F WCI  26
ROY            CLOUDY    42  19  39 MISG      29.52F
STANFORD         N/A     41  19  40 W39G48    29.51F
WINIFRED       PTSUNNY   41  20  43 MISG      29.51F
$$

MTZ017>020-022>027-061-062-042100-
NORTHEAST MONTANA

CITY           SKY/WX    TMP DP  RH WIND       PRES   REMARKS
GLASGOW        CLOUDY    40  28  62 S9        29.58F
JORDAN           N/A     42  20  41 SW15      29.60F
SIDNEY         SUNNY     34  24  67 S13       29.66F WCI  25
WOLF POINT     MOSUNNY   40  28  62 E3        29.62F
PLENTYWOOD       N/A     28  23  80 E6        29.61F WCI  22
POPLAR           N/A     36  25  64 SE5       29.62F
SCOBEY           N/A     32  19  58 SW3       29.60F
$$

MTZ028>42-056>058-042100-
SOUTHCENTRAL AND SOUTHEAST MONTANA

CITY           SKY/WX    TMP DP  RH WIND       PRES   REMARKS
BAKER          SUNNY     37  23  56 SW10      29.67F WCI  30
BILLINGS       CLOUDY    41  18  39 SW8       29.62F
LIVINGSTON     CLOUDY    36  24  62 SW25G39   29.60F WCI  24
MILES CITY     CLOUDY    43  17  35 SW8       29.65F
BIG TIMBER     PTSUNNY   37  25  60 SW12G18   29.61F WCI  30
EKALAKA          N/A     37  20  50 S1        29.67F
FORSYTH          N/A     45  18  33 SW12G21   29.65F
HARLOWTON        N/A     40  20  44 W21G28    29.56F
LAUREL           N/A     42  15  33 S15       29.64F
ROUNDUP          N/A     39  14  36 S9        29.56F
$$

REGIONAL REPORTS...DAKOTAS

CITY           SKY/WX    TMP DP  RH WIND       PRES   REMARKS
WILLISTON      SUNNY     31  22  69 SW6       29.66F WCI  25
MINOT          SUNNY     29  22  75 W9        29.65F WCI  20
DICKINSON      SUNNY     29  22  75 W10       29.65F WCI  20
BEACH            N/A     36  23  60 SW8       29.68F WCI  29
CROSBY           N/A     27  23  86 S10       29.65F WCI  17
TIOGA            N/A     27  25  93 S3        29.66F
WATFORD CITY     N/A     32  19  59 SW3       29.67F
BISMARCK       SUNNY     32  22  66 W14       29.72F WCI  22
GRAND FORKS    CLOUDY    32  28  85 W14       29.64F WCI  22
FARGO          PTSUNNY   35  30  82 W9        29.68F WCI  28
BUFFALO SD       N/A     44  23  43 SW16      29.63F
RAPID CITY     SUNNY     48  14  25 W3        29.74F
$$

REGIONAL REPORTS...WYOMING/IDAHO/WASHINGTON

CITY           SKY/WX    TMP DP  RH WIND       PRES   REMARKS
GILLETTE       SUNNY     41  15  35 SW14      29.69F
SHERIDAN       CLOUDY    41  18  39 SE8       29.67F
BUFFALO WY     CLOUDY    42  15  33 E7        29.67F
CODY           CLOUDY    39  23  52 W6        29.68
YELLOWSTONE LA   N/A     21  18  88 W12G24    29.73F WCI   9
IDAHO FALLS    CLOUDY    38  23  55 S24G33    29.85F WCI  27
SALMON         CLOUDY    28  27  93 CALM      29.73F
BOISE          CLOUDY    44  33  65 E12       29.86F
SPOKANE        CLOUDY    40  31  70 W20       29.73F
$$

REGIONAL REPORTS...ALBERTA

CITY           SKY/WX    TMP DP  RH WIND       PRES   REMARKS
EDMONTON       CLOUDY    27  16  63 NW12G21   29.61S WCI  16
CALGARY        LGT SNOW  23  21  93 N13       29.61F VSB 5/8 WCI  11
LETHBRIDGE     PTSUNNY   30  19  64 NW14      29.53F WCI  20
MEDICINE HAT   FLURRIES  32  25  74 NE10      29.52F WCI  24
WATERTON GATE    N/A     27  23  86 NE12        N/A  WCI  16
CARDSTON         N/A     27  19  74 N12G17      N/A  WCI  16
MILK RIVER       N/A     36  25  64 NW10        N/A  WCI  28
ONEFOUR          N/A     34  25  69 SE2         N/A
$$

REGIONAL REPORTS...SASKATCHEWAN

CITY           SKY/WX    TMP DP  RH WIND       PRES   REMARKS
SWIFT CURRENT  PTSUNNY   25  19  80 W2        29.51F
REGINA         PTSUNNY   25  19  80 SE7       29.59F WCI  17
SASKATOON      PTSUNNY   32  23  69 W5        29.60F
CYPRESS HILLS    N/A     27  25  93 SW5         N/A
VAL MARIE        N/A     32  28  86 SE1         N/A
ROCKGLEN         N/A     28  25  86 S10         N/A  WCI  19
ASSINIBOIA       N/A     30  16  55 NW17G24     N/A  WCI  18
$$



USA.gov is the U.S. government's official web portal to all federal, state and local government web resources and services.